This is the latest recevied weather packets stored in our database for station/object WB0OCV. If no packets are shown the sender has not sent any weather packets the latest 10 day(s).
| Time | Temp. | Humidity | Pressure | Rain* | Wind** | Luminosity | Snow |
|---|---|---|---|---|---|---|---|
| 1778092246 | 17.78° C | 75% | 1013.1 hPa | 0 mm | - | 189 W/m² | - |
| 1778091944 | 18.33° C | 73% | 1013.3 hPa | 0 mm | - | 212 W/m² | - |
| 1778091641 | 18.33° C | 74% | 1013.3 hPa | 0 mm | - | 242 W/m² | - |
| 1778091339 | 18.33° C | 74% | 1013.5 hPa | 0 mm | - | 241 W/m² | - |
| 1778091035 | 18.89° C | 73% | 1013.5 hPa | 0 mm | - | 251 W/m² | - |
| 1778090732 | 18.89° C | 72% | 1013.6 hPa | 0 mm | - | 240 W/m² | - |
| 1778090429 | 19.44° C | 72% | 1013.7 hPa | 0 mm | - | 298 W/m² | - |
| 1778090125 | 19.44° C | 71% | 1013.7 hPa | 0 mm | - | 288 W/m² | - |
| 1778089822 | 20° C | 69% | 1013.8 hPa | 0 mm | - | 313 W/m² | - |
| 1778089520 | 20.56° C | 67% | 1013.6 hPa | 0 mm | - | 434 W/m² | - |
| 1778089216 | 20° C | 70% | 1013.8 hPa | 0 mm | - | 682 W/m² | - |
| 1778088914 | 20° C | 70% | 1013.8 hPa | 0 mm | - | 348 W/m² | - |
| 1778088611 | 20.56° C | 68% | 1014 hPa | 0 mm | - | 476 W/m² | - |
| 1778088308 | 20.56° C | 68% | 1013.7 hPa | 0 mm | - | 581 W/m² | - |
| 1778088004 | 20.56° C | 68% | 1014 hPa | 0 mm | - | 555 W/m² | - |
| 1778087702 | 20.56° C | 68% | 1014 hPa | 0 mm | - | 602 W/m² | - |
| 1778087399 | 21.11° C | 67% | 1014.1 hPa | 0 mm | - | 736 W/m² | - |
| 1778087096 | 20° C | 70% | 1014.1 hPa | 0 mm | - | 1018 W/m² | - |
| 1778086794 | 19.44° C | 71% | 1014.3 hPa | 0 mm | - | 337 W/m² | - |
| 1778086492 | 20° C | 71% | 1014.3 hPa | 0 mm | - | 315 W/m² | - |
| 1778086188 | 19.44° C | 72% | 1014.4 hPa | 0 mm | - | 648 W/m² | - |
| 1778085885 | 19.44° C | 72% | 1014.4 hPa | 0 mm | - | 268 W/m² | - |
| 1778085583 | 19.44° C | 72% | 1014.4 hPa | 0 mm | - | 276 W/m² | - |
| 1778085278 | 19.44° C | 71% | 1014.6 hPa | 0 mm | - | 263 W/m² | - |
| 1778084972 | 20° C | 69% | 1014.5 hPa | 0 mm | - | 277 W/m² | - |
* Rain latest hour (hover to see other rain measurements)
** Current wind speed in m/s (hover to see current wind gust speed)